Location: Marcé
(47.5801°N, 0.3280°W)
Time: 07:46:51
(UTC+01:00)

Vanguard 1 - Pass Details

Date: 06 December 2021
Orbit: 652 x 3830 km, 34.2° (Epoch: 16 January)

Event Time Altitude Azimuth Distance (km) Brightness Sun altitude
Rises 23:46:45 0° 222° (SW) 6,852 14.3 -61.7°
Enters shadow 23:48:39 - 219° (SW) 6,549 14.1 -61.9°
Exits shadow 00:29:56 11° 92° (E) 6,391 14.1 -64.5°
Drops below altitude 10° 00:30:23 10° 91° (E) 6,456 14.1 -64.5°
Sets 00:35:09 0° 86° (E) 7,186 14.5 -64.7°
